RH
68 67 67 67 66 65 64 64 62 61 61 58 55 55 52 50 20 22 40 45 41 44 39 14 11 13 14 19 22 25 18 12 16 20 20 16 16 16 16 15 21 24 23 30 29
69 69 68 67 67 66 64 63 58 58 59 53 54 52 49 40 11 10 35 45 43 40 14 13 11 14 15 16 19 22 17 14 18 19 19 16 14 16 16 16 26 30 32 30 28
70 70 70 69 68 67 64 61 60 55 56 52 52 50 44 34 14 9 38 43 39 28 16 16 14 14 16 17 16 18 14 18 19 16 15 17 16 17 13 16 19 21 29 29 29
70 70 70 70 69 68 67 62 60 54 51 51 50 51 37 10 12 11 40 40 35 18 15 14 12 15 17 15 15 16 18 18 25 22 17 16 15 15 16 20 25 29 31 29 28
69 70 70 70 70 69 68 65 61 59 51 50 48 49 15 10 11 12 35 25 13 16 17 14 12 15 14 15 15 16 18 18 19 20 19 19 18 15 18 27 27 29 31 30 30
70 70 70 70 71 70 69 68 61 58 59 55 50 36 10 11 12 14 15 12 14 14 16 16 15 15 16 18 16 17 18 19 18 20 21 19 18 22 15 25 28 30 26 29 32
71 71 71 70 70 70 69 68 62 59 55 56 47 11 12 16 13 13 13 13 15 15 15 18 16 16 17 21 18 16 18 18 18 19 22 21 17 19 23 27 24 25 25 30 32
72 72 71 69 70 69 69 68 61 58 53 48 32 13 18 16 16 14 12 12 14 14 15 16 18 20 18 16 13 12 11 11 18 19 20 15 15 21 29 25 21 19 22 28 31
73 72 70 69 68 67 67 55 52 48 37 29 16 16 21 17 15 15 14 16 16 14 12 10 17 20 21 15 17 11 12 9 15 22 19 17 16 23 30 31 23 16 20 26 29
72 72 70 67 62 63 55 48 36 24 18 13 11 20 14 16 19 17 14 17 17 16 20 14 13 12 17 24 45 26 16 12 12 20 21 17 30 22 24 19 20 17 19 22 28
73 71 68 60 60 50 40 24 19 23 26 23 23 19 18 18 20 17 16 17 14 17 19 16 16 22 32 23 43 42 32 27 16 24 24 17 21 23 19 20 23 21 18 21 24
74 69 63 56 55 47 34 36 46 37 26 27 26 22 21 23 20 18 16 15 15 19 19 22 26 22 23 24 32 33 27 23 19 24 28 32 49 39 30 45 47 43 34 23 24
74 67 55 55 46 36 37 47 44 47 24 27 24 20 23 22 22 23 19 16 15 19 19 29 22 24 20 17 22 36 42 26 32 27 32 37 32 29 54 56 59 49 56 41 42
72 65 53 49 28 37 36 45 44 46 35 27 20 23 21 21 25 22 21 20 18 20 20 22 22 23 24 23 22 31 32 37 42 49 53 59 52 30 41 51 60 49 56 52 45
71 62 49 44 31 32 41 46 48 46 70 26 21 17 21 21 23 25 24 19 23 22 20 35 22 22 30 33 28 42 34 39 50 53 64 53 62 38 36 35 43 59 50 54 49
70 60 45 32 32 42 46 52 51 68 61 26 22 20 20 22 22 24 23 23 25 25 28 29 31 40 45 35 41 35 35 43 56 71 78 48 56 45 36 53 44 53 49 51 54
66 54 36 34 26 43 48 44 67 69 26 25 22 20 24 24 24 28 35 41 48 60 47 40 48 43 38 34 37 34 51 79 83 84 67 59 54 58 54 48 53 55 55 52 59
62 50 44 29 39 48 39 34 57 38 26 22 20 23 27 24 24 29 40 42 31 40 52 55 71 56 68 55 47 45 63 69 71 68 45 59 72 48 49 51 49 56 66 56 61
54 43 36 37 44 44 29 58 42 38 26 23 22 35 32 24 22 26 44 40 33 34 72 49 58 65 57 57 58 69 67 70 65 66 54 64 63 54 43 46 45 50 49 58 57
43 40 39 41 45 38 26 36 38 29 25 21 25 24 30 22 20 24 40 40 42 31 33 57 70 62 58 61 62 64 67 75 76 76 78 70 70 49 48 44 49 47 53 55 53
38 31 34 39 42 26 43 26 23 27 26 22 22 21 19 18 19 25 46 47 30 34 31 46 60 70 62 80 71 67 69 66 75 66 73 74 68 70 64 60 55 58 55 56 66
43 34 37 36 39 26 34 27 26 23 27 23 23 19 18 19 21 22 29 30 28 31 33 34 58 67 63 77 73 68 63 62 73 86 78 73 68 72 62 60 54 55 56 61 64
45 36 48 36 47 44 33 32 24 21 20 21 21 22 21 21 26 21 24 29 30 29 47 41 69 80 85 83 65 78 76 69 71 79 89 82 66 66 59 58 64 63 63 65 66
47 58 50 33 28 34 48 37 29 23 23 22 21 22 23 22 19 31 26 29 32 28 37 49 63 63 65 70 78 85 73 75 74 90 72 76 66 58 52 55 51 63 61 68 70
51 52 48 60 55 39 44 37 30 40 24 23 23 22 26 37 31 29 24 27 33 37 34 43 87 63 63 55 50 53 59 70 79 77 89 69 75 69 62 65 61 55 54 53 54
64 70 55 56 42 46 48 43 34 40 38 52 34 28 23 41 54 67 48 35 31 33 39 48 69 56 64 38 38 45 40 42 68 70 73 73 85 65 54 58 62 62 50 48 47
51 54 56 64 53 59 64 50 59 54 54 42 38 41 56 51 35 28 26 30 31 33 41 57 61 55 51 44 38 48 48 45 52 62 63 76 66 49 53 55 55 58 61 55 46
Wind_Speed
18 18 17 17 17 17 17 15 13 11 10 10 11 11 14 8 4 6 9 12 13 20 14 3 2 4 3 4 3 1 6 10 7 8 7 9 8 4 2 5 3 3 4 6 4
18 18 18 18 17 16 16 15 14 11 10 10 11 11 11 3 2 11 10 16 16 18 3 2 3 4 4 3 3 4 6 5 3 3 6 10 6 8 5 6 5 7 6 4 3
19 18 18 18 17 16 16 14 14 11 11 11 11 11 7 2 2 6 17 17 15 14 1 1 3 1 4 2 4 3 4 8 4 6 6 8 6 3 4 7 4 6 4 3 3
20 20 20 19 18 17 15 13 13 12 11 11 11 13 4 2 4 5 19 17 12 11 2 2 3 4 3 6 3 4 4 1 6 4 3 5 3 3 5 3 5 4 3 1 3
20 20 20 20 20 18 17 13 12 12 10 12 12 13 3 2 5 9 16 12 6 4 7 2 2 4 5 5 5 7 7 6 7 6 5 2 4 3 6 6 4 4 2 1 2
20 20 21 20 20 20 18 15 12 10 10 10 11 9 3 1 4 9 10 6 10 8 10 7 4 4 10 5 1 5 10 10 5 4 3 2 1 1 4 8 6 3 3 2 3
20 21 21 21 21 20 19 16 13 10 8 9 7 2 5 6 4 9 8 4 6 6 5 5 1 1 5 9 7 12 8 5 3 2 2 1 6 9 7 9 6 5 5 5 4
21 22 23 22 21 19 17 15 13 10 7 6 4 1 4 2 4 9 10 0 5 4 3 2 7 9 3 11 6 4 4 6 4 1 3 4 2 6 10 9 7 6 7 7 6
22 23 23 22 20 19 17 14 6 3 4 3 0 3 4 2 2 8 6 5 7 1 3 3 1 5 4 5 5 5 3 6 6 1 2 5 2 9 10 8 8 7 7 7 6
23 23 22 21 20 18 14 6 7 2 4 2 3 2 3 5 5 9 5 4 3 5 2 2 2 3 2 2 3 4 4 3 3 3 2 10 14 8 11 10 14 13 9 7 7
23 23 20 19 17 16 5 1 2 2 10 5 3 2 3 7 3 9 5 5 2 1 1 1 1 3 5 5 3 5 1 3 1 1 5 8 14 12 13 14 13 12 9 7 9
24 21 19 18 7 15 4 5 4 4 5 3 1 1 2 5 3 10 11 2 2 3 5 3 4 4 6 4 2 1 2 2 1 2 5 7 22 17 15 14 13 12 9 8 8
24 20 19 18 4 6 10 5 6 3 1 1 1 2 2 4 3 9 9 3 5 4 7 3 5 6 0 1 2 2 3 1 4 8 2 11 10 4 4 6 8 9 7 9 10
23 18 18 15 2 2 4 6 4 3 3 5 2 2 1 1 1 3 5 4 3 2 3 5 3 1 2 2 3 3 2 2 5 6 4 5 6 4 4 5 8 8 9 9 8
21 14 12 12 3 3 4 5 3 4 0 6 2 1 2 3 5 3 2 2 3 3 2 4 2 2 1 3 2 3 1 2 2 1 5 5 6 1 2 7 9 8 6 5 4
20 10 7 3 2 2 4 2 3 3 3 2 2 4 4 2 2 3 2 5 2 1 7 4 2 3 3 4 4 5 1 1 3 0 5 4 4 4 7 6 8 4 4 3 4
17 6 4 1 3 4 2 3 1 4 3 5 4 5 5 3 2 5 4 5 3 2 2 3 3 2 3 2 2 2 4 3 3 3 3 3 4 8 2 4 5 5 4 3 5
13 3 3 2 2 3 3 2 5 2 3 3 4 7 3 5 1 4 1 2 2 3 1 4 3 1 4 3 2 2 3 4 6 3 3 4 8 2 1 3 5 6 7 9 8
5 1 1 2 4 2 4 5 3 2 4 7 9 4 1 1 3 3 3 0 0 2 5 3 2 4 5 2 4 5 4 3 1 2 4 1 6 10 7 8 8 9 6 7 6
2 2 1 7 1 3 2 3 1 1 3 2 4 2 4 5 5 4 2 3 4 2 1 3 6 1 5 3 6 3 4 3 3 5 6 4 6 4 5 9 7 8 8 5 6
2 0 2 4 2 4 4 3 2 1 0 3 3 5 4 5 3 3 2 3 4 4 0 4 1 4 2 7 6 5 4 1 3 3 4 5 3 6 9 9 11 8 5 6 8
3 1 4 3 5 3 2 5 2 2 1 1 2 3 3 4 5 4 4 4 8 8 3 3 2 5 4 3 3 3 3 6 5 6 0 4 9 3 7 5 3 5 6 7 7
3 3 3 4 5 4 4 3 2 2 2 1 3 4 1 3 6 6 4 2 8 8 7 8 3 6 5 3 2 6 6 2 3 2 9 6 6 1 4 7 9 10 9 9 7
2 3 4 5 2 1 4 1 5 1 3 3 4 3 3 4 7 5 4 2 8 7 6 9 5 11 11 7 4 6 8 10 9 6 7 13 13 9 5 9 9 9 10 9 7
5 3 2 5 3 2 2 2 3 6 2 3 3 7 4 4 9 10 5 3 8 8 6 6 7 11 17 18 15 17 20 16 18 21 12 11 10 16 11 12 11 11 10 8 7
3 4 1 2 2 5 0 2 2 3 4 5 6 5 4 9 12 22 20 16 13 6 10 6 5 2 7 16 18 21 24 20 23 21 24 23 29 21 20 13 12 11 6 8 8
1 1 1 0 1 3 2 3 6 11 6 10 11 13 17 18 10 13 14 14 14 7 13 7 5 3 8 2 13 18 20 17 13 8 16 17 14 12 12 8 9 8 8 11 9
Wind_Direction
6 4 3 359 356 355 351 348 351 351 345 343 343 341 342 360 30 54 44 337 331 335 331 275 96 45 51 86 37 253 233 233 211 180 130 149 170 156 57 147 100 89 74 86 50
4 2 359 356 354 353 350 347 351 349 344 345 342 339 352 56 73 54 343 343 338 350 339 332 135 113 84 62 32 244 232 224 20 76 155 152 183 156 183 165 146 133 118 93 55
1 358 355 352 350 348 349 347 346 347 344 345 345 341 351 287 199 12 341 342 345 355 351 34 92 93 113 81 26 24 287 135 102 93 130 142 155 154 192 207 165 154 140 100 36
357 354 351 348 347 346 344 342 341 346 345 344 343 345 344 241 323 355 339 338 342 353 263 127 167 134 120 151 104 141 80 121 135 108 128 150 115 188 227 87 109 120 111 38 14
355 353 349 345 341 340 337 336 332 331 335 338 336 345 282 79 42 344 337 334 339 349 30 14 146 139 134 112 122 114 133 97 105 104 91 148 194 260 221 162 152 147 178 330 344
353 351 348 342 337 334 332 329 329 329 321 327 334 339 284 137 343 342 341 347 10 23 41 33 57 102 103 83 353 118 127 121 123 100 76 237 205 261 189 168 172 216 268 289 313
352 348 346 340 336 333 328 327 325 322 319 315 336 353 54 71 332 344 356 6 349 9 51 41 36 354 133 115 117 133 119 137 151 109 150 1 218 226 157 171 186 228 262 266 275
351 349 345 341 335 331 326 322 316 306 312 314 46 292 72 342 314 357 355 45 25 33 67 63 85 86 38 121 115 168 198 190 139 218 162 246 171 159 163 182 202 237 245 244 243
350 349 347 341 337 334 328 327 360 38 5 29 113 324 73 320 1 345 359 346 313 326 52 82 94 85 167 173 147 189 227 215 160 187 267 233 236 159 176 203 234 259 242 249 259
350 350 348 344 342 336 333 335 42 96 14 115 87 179 66 342 317 330 346 350 330 316 224 38 108 129 110 234 229 185 215 201 215 77 286 246 257 179 195 236 253 259 246 249 258
351 349 350 349 350 350 352 259 249 67 40 43 8 341 330 326 288 355 348 336 307 312 132 90 199 34 66 52 69 91 97 310 105 102 300 277 269 249 232 232 240 234 236 243 251
349 351 352 351 11 19 36 57 37 347 80 39 34 324 310 332 298 6 347 9 12 19 318 159 79 110 108 99 110 81 197 213 161 105 300 293 280 273 252 228 220 227 233 245 250
348 351 352 351 61 46 66 44 320 281 296 74 34 343 338 332 21 348 358 349 25 45 22 30 85 139 65 66 342 40 340 0 322 315 236 304 259 194 155 197 218 221 234 253 254
348 353 357 343 92 4 60 343 320 287 231 24 23 61 274 325 78 354 8 350 48 58 53 63 130 145 80 54 334 267 66 62 336 330 285 359 289 162 128 173 202 203 218 245 257
349 352 6 21 101 57 347 328 304 240 271 4 33 6 326 10 330 67 28 327 33 59 258 76 167 161 110 41 346 64 28 28 72 348 317 162 240 242 150 191 193 212 218 232 268
344 350 2 41 71 78 319 301 222 225 16 9 315 348 337 46 46 322 33 59 36 86 58 74 57 21 53 71 56 131 195 89 109 174 239 93 268 229 179 188 160 180 221 236 275
343 357 41 304 360 338 282 181 240 49 43 342 338 343 329 312 17 17 25 25 14 305 53 143 63 70 8 187 124 202 252 267 225 194 281 138 220 276 254 199 139 165 222 247 270
345 4 40 65 315 287 211 217 54 23 333 19 319 300 300 351 90 7 88 74 82 312 56 341 201 1 2 8 12 75 326 294 284 282 17 156 232 233 227 288 258 262 263 282 275
344 349 244 45 308 227 253 46 32 351 339 324 303 297 322 131 310 322 29 342 296 318 351 315 183 131 32 72 329 132 206 34 73 121 258 258 260 261 232 240 226 256 247 258 270
357 315 347 339 346 241 30 90 325 341 322 283 296 349 312 332 320 349 332 154 180 246 300 133 276 193 146 149 64 302 94 174 191 266 257 220 266 250 176 205 203 220 234 259 286
9 189 51 358 186 48 59 356 309 106 296 277 312 298 299 311 303 299 286 175 198 156 140 158 241 122 166 202 173 150 202 70 320 270 278 300 261 194 192 172 186 207 218 275 282
336 28 7 284 41 35 31 323 329 295 169 236 253 271 283 308 278 267 263 246 170 162 190 174 186 260 252 69 11 335 278 216 243 171 171 315 271 156 228 221 235 246 262 282 268
16 316 344 327 55 11 332 312 283 292 286 259 258 220 206 271 290 238 254 92 168 182 179 175 205 290 195 162 167 234 188 204 48 358 212 238 247 135 244 251 241 251 269 290 278
355 1 29 53 32 34 347 351 319 223 268 259 274 231 240 243 221 283 261 175 195 220 208 182 226 232 265 326 110 201 197 200 204 222 236 232 267 238 222 243 239 253 281 285 273
11 53 40 353 39 349 227 311 319 343 239 230 238 237 224 277 294 260 263 235 201 216 212 215 248 241 254 270 259 258 257 197 206 224 234 266 241 270 275 284 278 298 288 279 265
20 346 124 302 282 305 333 218 288 319 294 281 244 291 244 261 262 284 290 287 268 176 193 201 268 276 270 259 256 266 261 249 221 238 244 255 275 281 290 269 264 265 258 275 265
56 145 267 56 329 307 343 320 311 325 267 258 285 299 287 286 289 278 274 261 259 228 202 193 229 253 272 332 292 271 258 241 212 202 224 230 242 258 286 289 285 283 260 275 269